GFSNE_prec_precacc_192.txt.gz
Total_Precipitation_Accumulation
2.08 1.91 1.54 1.27 1.25 1.18 1.14 1.20 1.63 1.70 1.39 0.86 0.61 0.45 0.46 0.61 0.78 1.00 1.04 1.03 1.09 1.06 1.22 1.52 1.32 1.32 1.66 1.74 1.67 1.66 1.68 1.65 1.42 1.33 1.22 1.24 1.48 1.77
1.90 1.85 1.55 1.24 1.17 1.07 1.15 1.11 1.06 1.23 1.26 0.81 0.75 0.55 0.51 0.45 0.47 0.57 0.85 1.19 1.05 0.94 0.92 1.16 1.57 1.54 1.29 1.56 1.85 1.92 1.96 1.77 1.56 1.44 1.47 1.29 1.29 1.53
1.74 1.78 1.63 1.69 1.80 1.49 1.38 1.46 1.34 1.41 1.40 0.89 0.85 0.94 0.89 0.67 0.54 0.61 0.71 0.88 1.00 0.92 0.72 0.79 1.12 1.59 1.73 1.55 1.48 1.78 2.20 2.17 1.75 1.42 1.23 1.27 1.28 1.30
1.52 1.85 1.72 1.87 2.11 1.95 1.85 1.59 1.47 1.33 1.66 1.33 1.23 1.36 1.60 1.46 1.04 0.77 0.59 0.59 0.74 1.03 0.90 0.65 0.62 0.86 1.42 1.72 1.74 1.60 1.68 2.11 2.10 1.68 1.38 1.22 1.26 1.37
1.31 1.32 1.36 1.61 1.64 1.70 1.79 1.58 1.53 1.76 2.05 1.84 1.55 1.38 1.32 1.33 1.25 1.16 0.93 0.63 0.57 0.98 1.00 1.13 1.00 0.76 0.79 1.10 1.48 1.64 1.55 1.46 1.81 2.00 1.68 1.44 1.26 1.19
1.63 1.54 1.38 1.54 1.51 1.68 2.01 2.17 2.13 2.23 2.22 1.91 1.81 1.64 1.39 1.20 1.27 1.33 1.41 1.27 1.03 0.96 1.24 1.27 1.25 1.18 0.94 0.83 0.97 1.23 1.57 1.82 1.69 1.84 2.03 1.83 1.50 1.44
1.88 1.86 1.90 2.15 2.18 2.06 1.97 1.88 2.12 2.17 2.08 2.43 2.52 2.15 1.84 1.87 1.60 1.42 1.37 1.34 1.40 1.31 1.20 1.24 1.27 1.30 1.38 1.24 1.06 1.13 1.27 1.50 1.74 1.82 1.92 1.98 1.95 1.54
2.05 1.80 1.77 2.14 1.96 2.36 2.32 2.39 2.31 2.22 2.20 1.91 1.81 1.85 1.83 1.57 1.88 2.08 2.09 1.82 1.60 1.17 1.43 1.47 1.44 1.46 1.39 1.35 1.46 1.26 1.09 1.20 1.39 1.59 1.75 1.91 2.03 2.15
2.16 2.11 2.21 2.52 2.47 2.03 2.44 2.44 2.65 2.60 2.25 2.09 2.03 1.54 1.67 1.51 1.56 2.02 1.73 1.47 1.37 1.02 1.40 1.80 1.71 1.82 1.59 1.78 2.00 1.61 1.46 1.52 1.60 1.63 1.73 1.96 2.06 2.27
1.97 2.11 2.30 2.43 2.42 2.23 2.31 2.54 2.26 2.07 1.97 1.87 1.77 1.55 1.35 1.38 1.80 1.94 2.27 2.57 2.09 1.60 1.86 2.27 1.55 1.58 1.51 1.49 1.89 1.92 1.84 1.79 1.97 2.05 2.07 2.06 2.21 2.29
1.13 1.53 1.86 2.13 2.78 2.45 2.35 2.56 2.36 2.07 2.16 2.26 2.21 1.89 2.06 2.15 2.02 2.51 2.58 2.54 2.44 1.58 1.28 1.58 1.33 1.44 1.63 1.67 1.67 1.74 1.90 2.04 2.02 2.23 2.40 2.39 2.46 2.83
0.71 1.01 1.52 1.50 1.83 1.76 1.77 1.79 2.00 1.89 1.72 1.76 1.98 2.26 2.14 2.31 2.25 2.16 2.45 2.63 2.26 2.37 1.38 1.48 1.14 1.17 1.88 1.56 1.46 1.64 1.67 1.82 1.96 1.96 1.97 2.18 2.48 2.79
0.53 0.50 0.65 1.02 1.13 1.25 1.35 1.44 1.61 1.40 1.47 1.63 1.75 1.84 1.86 1.82 2.08 2.10 2.16 2.75 2.70 2.05 1.36 1.88 1.61 1.25 1.59 1.22 1.18 1.32 1.45 1.74 1.93 2.00 2.01 1.98 2.11 2.42
0.94 0.93 0.94 0.82 0.72 0.81 1.03 1.32 1.31 1.17 1.27 1.50 1.65 1.68 1.81 1.84 1.68 1.83 1.84 1.98 2.06 2.38 1.82 2.41 2.48 1.40 1.72 1.56 1.13 1.30 1.57 1.76 1.93 1.81 1.90 2.19 2.21 2.23
0.92 0.98 0.98 0.90 0.75 0.74 0.75 0.86 1.02 1.23 1.31 1.37 1.34 1.26 1.31 1.44 1.52 1.72 1.93 2.02 2.12 2.22 2.39 2.44 2.36 1.77 1.89 1.85 1.41 1.29 1.64 1.85 1.79 1.66 1.69 1.66 1.62 1.63
0.92 0.80 0.78 0.76 0.80 0.93 0.95 0.85 0.91 1.00 1.09 1.20 1.15 1.06 1.00 1.15 1.34 1.49 1.72 1.77 2.28 2.34 2.04 2.19 2.40 2.56 2.39 1.75 1.47 1.53 1.43 1.52 1.61 1.61 1.59 1.70 1.62 1.42
0.98 1.04 0.92 0.73 0.62 0.57 0.53 0.44 0.45 0.52 0.63 0.65 0.74 0.82 0.96 1.02 1.07 1.17 1.38 1.49 1.78 1.64 1.80 1.85 2.06 2.29 2.19 1.94 1.97 1.54 1.47 1.60 1.61 1.58 1.69 1.73 1.59 1.64
0.90 0.72 0.63 0.60 0.59 0.53 0.59 0.62 0.47 0.47 0.40 0.43 0.55 0.53 0.65 0.82 0.93 1.03 1.17 1.33 1.38 1.53 1.72 1.78 1.83 2.31 2.31 1.77 1.55 1.55 1.94 1.97 1.76 1.56 1.49 1.66 1.63 1.61
0.94 0.80 0.76 0.73 0.73 0.67 0.62 0.58 0.61 0.65 0.59 0.61 0.63 0.61 0.55 0.58 0.82 0.80 0.91 1.13 1.20 1.10 1.30 1.64 1.84 1.95 2.20 2.11 1.45 1.28 1.54 1.45 1.54 1.66 1.64 1.57 1.64 1.50
0.94 0.94 0.92 0.82 0.76 0.71 0.65 0.63 0.61 0.57 0.54 0.52 0.67 0.68 0.68 0.66 0.67 0.68 0.73 0.87 0.97 0.94 0.89 1.00 1.33 1.59 1.87 1.89 1.81 1.46 1.39 1.37 1.51 1.55 1.58 1.52 1.56 1.68
0.99 1.06 1.11 1.03 0.92 0.82 0.78 0.73 0.70 0.71 0.65 0.62 0.61 0.59 0.59 0.66 0.66 0.64 0.70 0.75 0.81 0.85 0.93 0.90 1.02 1.28 1.41 1.56 1.89 1.79 1.75 1.54 1.35 1.52 1.56 1.87 1.61 1.49
1.55 1.43 1.32 1.32 1.27 1.19 1.12 1.02 0.92 0.85 0.78 0.70 0.69 0.67 0.68 0.68 0.66 0.68 0.73 0.89 0.89 0.87 0.90 0.85 0.84 0.99 1.25 1.44 1.60 1.53 1.63 1.74 1.52 1.40 1.46 1.69 1.69 1.51
1.46 1.41 1.31 1.22 1.17 1.15 1.10 1.07 1.02 1.01 0.93 0.86 0.81 0.78 0.77 0.79 0.74 0.73 0.70 0.67 0.67 0.69 0.69 0.85 0.88 0.99 1.17 1.22 1.44 1.65 1.48 1.52 1.56 1.43 1.63 1.32 1.18 1.03

GFSNE_prec_precacc_195.txt.gz
Total_Precipitation_Accumulation
2.08 1.91 1.54 1.27 1.25 1.18 1.14 1.20 1.63 1.70 1.39 0.86 0.61 0.45 0.46 0.61 0.78 1.00 1.04 1.03 1.09 1.06 1.22 1.52 1.32 1.32 1.66 1.74 1.67 1.66 1.68 1.65 1.42 1.33 1.22 1.24 1.48 1.77
1.90 1.85 1.55 1.24 1.17 1.07 1.15 1.11 1.06 1.23 1.26 0.81 0.75 0.55 0.51 0.45 0.47 0.57 0.85 1.19 1.05 0.94 0.92 1.16 1.57 1.54 1.29 1.56 1.85 1.92 1.96 1.77 1.56 1.44 1.47 1.29 1.29 1.53
1.74 1.78 1.63 1.69 1.80 1.49 1.38 1.46 1.34 1.41 1.40 0.89 0.85 0.94 0.89 0.67 0.54 0.61 0.71 0.88 1.00 0.92 0.72 0.79 1.12 1.59 1.73 1.55 1.48 1.78 2.20 2.17 1.75 1.42 1.23 1.27 1.28 1.30
1.52 1.85 1.72 1.87 2.11 1.95 1.85 1.59 1.47 1.33 1.66 1.33 1.23 1.36 1.60 1.46 1.04 0.77 0.59 0.59 0.74 1.03 0.90 0.65 0.62 0.86 1.42 1.72 1.74 1.60 1.68 2.11 2.10 1.68 1.38 1.22 1.26 1.37
1.31 1.32 1.36 1.61 1.64 1.70 1.79 1.58 1.53 1.76 2.05 1.84 1.55 1.38 1.32 1.33 1.25 1.16 0.93 0.63 0.57 0.98 1.00 1.13 1.00 0.76 0.79 1.10 1.48 1.64 1.55 1.46 1.81 2.00 1.68 1.44 1.26 1.19
1.63 1.54 1.38 1.54 1.51 1.68 2.01 2.17 2.13 2.23 2.22 1.91 1.81 1.64 1.39 1.20 1.27 1.33 1.41 1.27 1.03 0.96 1.24 1.27 1.25 1.18 0.94 0.83 0.97 1.23 1.57 1.82 1.69 1.84 2.03 1.83 1.50 1.44
1.88 1.86 1.90 2.15 2.18 2.06 1.97 1.88 2.12 2.17 2.08 2.43 2.52 2.15 1.84 1.87 1.60 1.42 1.37 1.34 1.40 1.31 1.20 1.24 1.27 1.30 1.38 1.24 1.06 1.13 1.27 1.50 1.74 1.82 1.92 1.98 1.95 1.54
2.05 1.80 1.77 2.14 1.96 2.36 2.32 2.39 2.31 2.22 2.20 1.91 1.81 1.85 1.83 1.57 1.88 2.08 2.09 1.82 1.60 1.17 1.43 1.47 1.44 1.46 1.39 1.35 1.46 1.26 1.09 1.20 1.39 1.59 1.75 1.91 2.03 2.15
2.16 2.11 2.21 2.52 2.47 2.03 2.44 2.44 2.65 2.60 2.25 2.09 2.03 1.54 1.67 1.51 1.56 2.02 1.73 1.47 1.37 1.02 1.40 1.80 1.71 1.82 1.59 1.78 2.00 1.61 1.46 1.52 1.60 1.63 1.73 1.96 2.07 2.27
1.97 2.11 2.30 2.43 2.42 2.23 2.31 2.54 2.26 2.07 1.97 1.87 1.77 1.55 1.35 1.38 1.80 1.94 2.27 2.57 2.09 1.60 1.86 2.27 1.55 1.58 1.51 1.49 1.89 1.92 1.84 1.79 1.97 2.05 2.07 2.06 2.21 2.29
1.13 1.53 1.86 2.13 2.78 2.45 2.35 2.56 2.36 2.07 2.16 2.26 2.21 1.89 2.06 2.15 2.02 2.51 2.58 2.54 2.44 1.58 1.28 1.58 1.33 1.44 1.63 1.67 1.67 1.74 1.90 2.04 2.02 2.23 2.40 2.39 2.46 2.83
0.71 1.01 1.52 1.50 1.83 1.76 1.77 1.79 2.00 1.89 1.72 1.76 1.98 2.26 2.14 2.31 2.25 2.16 2.45 2.64 2.27 2.38 1.38 1.48 1.15 1.17 1.88 1.56 1.46 1.64 1.67 1.82 1.96 1.96 1.97 2.18 2.48 2.79
0.53 0.50 0.65 1.02 1.13 1.25 1.35 1.44 1.61 1.40 1.47 1.63 1.75 1.84 1.86 1.82 2.08 2.10 2.16 2.76 2.71 2.06 1.36 1.88 1.62 1.26 1.60 1.22 1.18 1.32 1.45 1.74 1.93 2.00 2.01 1.98 2.11 2.42
0.94 0.93 0.94 0.82 0.72 0.81 1.03 1.32 1.31 1.17 1.27 1.50 1.65 1.68 1.81 1.84 1.68 1.83 1.84 1.98 2.06 2.39 1.83 2.42 2.51 1.42 1.74 1.57 1.13 1.30 1.57 1.76 1.93 1.81 1.90 2.19 2.21 2.23
0.92 0.98 0.98 0.90 0.75 0.74 0.75 0.86 1.02 1.23 1.31 1.37 1.34 1.26 1.31 1.44 1.52 1.72 1.93 2.02 2.12 2.22 2.40 2.45 2.37 1.79 1.91 1.87 1.42 1.30 1.65 1.85 1.79 1.67 1.70 1.67 1.63 1.64
0.92 0.80 0.78 0.76 0.80 0.93 0.95 0.85 0.91 1.00 1.09 1.20 1.15 1.06 1.00 1.15 1.34 1.49 1.72 1.77 2.29 2.35 2.04 2.20 2.41 2.57 2.42 1.77 1.49 1.54 1.44 1.53 1.62 1.61 1.61 1.72 1.64 1.43
0.98 1.04 0.92 0.74 0.62 0.57 0.53 0.44 0.45 0.52 0.63 0.65 0.74 0.82 0.96 1.02 1.07 1.17 1.38 1.49 1.79 1.65 1.81 1.85 2.06 2.30 2.20 1.96 1.99 1.56 1.48 1.61 1.62 1.59 1.71 1.75 1.60 1.65
0.90 0.72 0.63 0.60 0.59 0.54 0.59 0.62 0.47 0.47 0.40 0.43 0.55 0.53 0.65 0.82 0.93 1.03 1.17 1.33 1.39 1.53 1.73 1.79 1.84 2.32 2.32 1.78 1.55 1.56 1.96 1.98 1.76 1.57 1.51 1.69 1.64 1.61
0.94 0.80 0.76 0.74 0.74 0.67 0.62 0.58 0.61 0.65 0.59 0.61 0.63 0.61 0.55 0.58 0.82 0.80 0.92 1.13 1.20 1.11 1.30 1.64 1.84 1.96 2.23 2.12 1.45 1.28 1.58 1.48 1.55 1.67 1.65 1.60 1.67 1.51
0.94 0.94 0.93 0.82 0.77 0.71 0.65 0.64 0.61 0.58 0.54 0.53 0.67 0.68 0.68 0.67 0.67 0.68 0.73 0.87 0.97 0.94 0.90 1.01 1.34 1.60 1.89 1.90 1.82 1.46 1.40 1.42 1.56 1.58 1.59 1.54 1.57 1.68
1.00 1.07 1.11 1.03 0.93 0.82 0.79 0.74 0.71 0.71 0.65 0.62 0.61 0.60 0.59 0.66 0.66 0.64 0.71 0.76 0.81 0.86 0.94 0.91 1.02 1.28 1.42 1.57 1.90 1.79 1.75 1.55 1.40 1.60 1.61 1.90 1.62 1.50
1.55 1.44 1.32 1.32 1.28 1.19 1.12 1.03 0.93 0.85 0.78 0.70 0.69 0.67 0.69 0.69 0.67 0.68 0.74 0.90 0.89 0.87 0.91 0.86 0.85 1.00 1.25 1.45 1.61 1.54 1.63 1.74 1.52 1.41 1.50 1.75 1.76 1.56
1.47 1.42 1.32 1.22 1.17 1.15 1.10 1.07 1.02 1.01 0.94 0.87 0.81 0.78 0.78 0.79 0.74 0.73 0.71 0.67 0.68 0.69 0.69 0.85 0.89 0.99 1.17 1.23 1.45 1.66 1.49 1.52 1.57 1.43 1.63 1.33 1.21 1.05

GFSNE_prec_precacc_198.txt.gz
Total_Precipitation_Accumulation
2.08 1.91 1.54 1.27 1.25 1.18 1.14 1.20 1.63 1.70 1.39 0.86 0.61 0.45 0.46 0.61 0.78 1.00 1.04 1.03 1.09 1.06 1.22 1.52 1.32 1.32 1.66 1.74 1.67 1.66 1.68 1.65 1.42 1.33 1.22 1.24 1.48 1.77
1.90 1.85 1.55 1.24 1.17 1.07 1.15 1.11 1.06 1.23 1.26 0.81 0.75 0.55 0.51 0.45 0.47 0.57 0.85 1.19 1.05 0.94 0.92 1.16 1.57 1.54 1.29 1.56 1.85 1.92 1.96 1.77 1.56 1.44 1.47 1.29 1.29 1.53
1.74 1.78 1.63 1.69 1.80 1.49 1.38 1.46 1.34 1.41 1.40 0.89 0.85 0.94 0.89 0.67 0.54 0.61 0.71 0.88 1.00 0.92 0.72 0.79 1.12 1.59 1.73 1.55 1.48 1.78 2.20 2.17 1.75 1.42 1.23 1.27 1.28 1.30
1.52 1.85 1.73 1.87 2.11 1.95 1.85 1.59 1.47 1.33 1.66 1.33 1.23 1.36 1.60 1.46 1.04 0.77 0.59 0.59 0.74 1.03 0.90 0.65 0.62 0.86 1.42 1.72 1.74 1.60 1.68 2.11 2.10 1.68 1.38 1.22 1.26 1.37
1.32 1.32 1.37 1.63 1.65 1.70 1.79 1.58 1.53 1.76 2.05 1.84 1.55 1.38 1.32 1.33 1.25 1.16 0.93 0.63 0.57 0.98 1.00 1.13 1.00 0.76 0.79 1.10 1.48 1.64 1.55 1.46 1.81 2.00 1.68 1.44 1.26 1.19
1.64 1.55 1.39 1.57 1.52 1.68 2.01 2.17 2.13 2.23 2.22 1.91 1.81 1.64 1.39 1.20 1.27 1.33 1.41 1.27 1.03 0.96 1.24 1.27 1.25 1.18 0.94 0.83 0.97 1.23 1.57 1.82 1.69 1.84 2.03 1.83 1.50 1.44
1.90 1.88 1.91 2.16 2.18 2.06 1.97 1.88 2.12 2.17 2.08 2.43 2.52 2.15 1.84 1.87 1.60 1.42 1.37 1.34 1.40 1.31 1.20 1.24 1.27 1.30 1.38 1.24 1.06 1.13 1.27 1.50 1.74 1.82 1.92 1.98 1.95 1.54
2.08 1.82 1.78 2.14 1.96 2.37 2.32 2.39 2.31 2.22 2.20 1.91 1.81 1.85 1.83 1.57 1.88 2.08 2.09 1.82 1.60 1.17 1.43 1.47 1.44 1.46 1.39 1.35 1.46 1.26 1.09 1.20 1.39 1.59 1.75 1.91 2.03 2.15
2.18 2.12 2.22 2.52 2.48 2.03 2.44 2.44 2.65 2.60 2.25 2.09 2.03 1.54 1.67 1.51 1.56 2.02 1.73 1.47 1.37 1.02 1.40 1.80 1.71 1.82 1.59 1.78 2.00 1.61 1.46 1.52 1.60 1.63 1.73 1.96 2.07 2.28
1.98 2.11 2.30 2.43 2.42 2.23 2.31 2.54 2.26 2.07 1.97 1.87 1.77 1.55 1.35 1.38 1.80 1.94 2.27 2.57 2.09 1.60 1.86 2.27 1.55 1.58 1.51 1.49 1.89 1.92 1.84 1.79 1.97 2.05 2.07 2.06 2.21 2.29
1.13 1.53 1.86 2.13 2.78 2.45 2.35 2.56 2.36 2.07 2.16 2.26 2.21 1.89 2.06 2.15 2.02 2.51 2.58 2.54 2.44 1.58 1.28 1.58 1.33 1.44 1.63 1.67 1.67 1.74 1.90 2.04 2.02 2.23 2.40 2.39 2.46 2.83
0.71 1.01 1.52 1.50 1.83 1.76 1.77 1.79 2.00 1.89 1.72 1.76 1.98 2.26 2.14 2.31 2.25 2.16 2.45 2.65 2.27 2.38 1.38 1.48 1.15 1.17 1.88 1.56 1.46 1.64 1.67 1.82 1.96 1.96 1.97 2.19 2.48 2.79
0.53 0.50 0.65 1.02 1.13 1.25 1.35 1.44 1.61 1.40 1.47 1.63 1.75 1.84 1.86 1.83 2.08 2.11 2.17 2.76 2.72 2.06 1.36 1.88 1.63 1.26 1.60 1.22 1.18 1.32 1.45 1.74 1.93 2.00 2.01 1.98 2.11 2.42
0.94 0.93 0.94 0.82 0.72 0.81 1.03 1.32 1.31 1.17 1.27 1.50 1.65 1.68 1.81 1.84 1.68 1.83 1.84 1.98 2.06 2.40 1.83 2.42 2.52 1.43 1.75 1.58 1.13 1.31 1.57 1.76 1.93 1.81 1.90 2.19 2.21 2.24
0.92 0.98 0.98 0.90 0.75 0.74 0.75 0.86 1.02 1.23 1.31 1.37 1.34 1.26 1.31 1.44 1.52 1.72 1.94 2.02 2.13 2.23 2.40 2.45 2.38 1.80 1.92 1.88 1.43 1.30 1.65 1.85 1.79 1.67 1.70 1.67 1.64 1.65
0.92 0.80 0.78 0.76 0.80 0.93 0.95 0.85 0.91 1.00 1.09 1.20 1.15 1.06 1.00 1.15 1.34 1.49 1.72 1.78 2.29 2.35 2.04 2.20 2.41 2.58 2.43 1.78 1.50 1.55 1.44 1.53 1.62 1.62 1.62 1.72 1.64 1.44
0.99 1.04 0.92 0.74 0.63 0.57 0.53 0.44 0.45 0.52 0.63 0.65 0.74 0.82 0.96 1.02 1.07 1.17 1.38 1.49 1.79 1.65 1.81 1.85 2.06 2.30 2.21 1.96 1.99 1.56 1.49 1.62 1.62 1.59 1.71 1.76 1.60 1.65
0.90 0.72 0.63 0.61 0.59 0.54 0.59 0.63 0.47 0.47 0.40 0.43 0.55 0.53 0.66 0.83 0.93 1.03 1.18 1.34 1.39 1.54 1.73 1.79 1.84 2.33 2.32 1.78 1.55 1.57 1.96 1.98 1.76 1.57 1.51 1.70 1.65 1.61
0.94 0.80 0.77 0.74 0.74 0.67 0.62 0.59 0.61 0.65 0.59 0.61 0.63 0.61 0.55 0.58 0.82 0.81 0.92 1.14 1.21 1.11 1.30 1.64 1.85 1.97 2.24 2.13 1.45 1.28 1.58 1.48 1.56 1.67 1.65 1.61 1.69 1.51
0.94 0.94 0.93 0.83 0.77 0.72 0.65 0.64 0.61 0.58 0.54 0.53 0.68 0.68 0.68 0.67 0.68 0.69 0.74 0.88 0.98 0.94 0.90 1.01 1.34 1.60 1.90 1.91 1.83 1.46 1.40 1.43 1.59 1.60 1.60 1.54 1.57 1.69
1.02 1.08 1.12 1.04 0.93 0.82 0.79 0.74 0.71 0.71 0.66 0.62 0.61 0.60 0.60 0.66 0.67 0.65 0.71 0.76 0.81 0.86 0.94 0.91 1.02 1.29 1.42 1.58 1.91 1.79 1.75 1.55 1.41 1.65 1.66 1.94 1.63 1.50
1.56 1.45 1.33 1.33 1.28 1.20 1.13 1.03 0.93 0.86 0.78 0.71 0.69 0.68 0.69 0.69 0.67 0.69 0.74 0.90 0.89 0.88 0.91 0.86 0.85 1.00 1.26 1.45 1.61 1.54 1.63 1.74 1.52 1.42 1.52 1.81 1.86 1.64
1.48 1.42 1.32 1.23 1.18 1.16 1.11 1.08 1.02 1.01 0.94 0.87 0.82 0.79 0.78 0.79 0.74 0.74 0.71 0.68 0.68 0.70 0.70 0.86 0.89 1.00 1.17 1.23 1.45 1.66 1.49 1.52 1.57 1.44 1.63 1.34 1.25 1.09

GFSNE_prec_precacc_204.txt.gz
Total_Precipitation_Accumulation
2.08 1.91 1.54 1.27 1.25 1.18 1.14 1.20 1.63 1.70 1.39 0.86 0.61 0.45 0.46 0.61 0.78 1.00 1.04 1.03 1.09 1.06 1.22 1.52 1.32 1.32 1.66 1.74 1.67 1.66 1.68 1.65 1.42 1.33 1.22 1.24 1.48 1.77
1.92 1.86 1.56 1.24 1.17 1.07 1.15 1.11 1.06 1.23 1.27 0.81 0.75 0.55 0.51 0.45 0.47 0.57 0.85 1.19 1.05 0.94 0.92 1.16 1.57 1.54 1.29 1.56 1.85 1.92 1.96 1.77 1.56 1.44 1.47 1.29 1.29 1.53
1.77 1.79 1.64 1.69 1.80 1.49 1.38 1.46 1.34 1.42 1.41 0.90 0.85 0.94 0.89 0.67 0.54 0.61 0.71 0.88 1.00 0.92 0.72 0.79 1.12 1.59 1.73 1.55 1.48 1.78 2.20 2.17 1.75 1.42 1.23 1.27 1.28 1.30
1.57 1.87 1.74 1.88 2.12 1.96 1.86 1.60 1.48 1.34 1.67 1.35 1.25 1.37 1.60 1.46 1.04 0.77 0.59 0.59 0.74 1.03 0.90 0.65 0.62 0.86 1.42 1.72 1.74 1.60 1.68 2.11 2.10 1.68 1.38 1.22 1.26 1.37
1.36 1.35 1.39 1.65 1.67 1.72 1.81 1.61 1.55 1.77 2.07 1.86 1.57 1.39 1.32 1.33 1.25 1.16 0.93 0.63 0.57 0.98 1.00 1.13 1.00 0.76 0.79 1.10 1.48 1.64 1.55 1.46 1.81 2.00 1.68 1.44 1.26 1.19
1.65 1.56 1.40 1.58 1.53 1.69 2.01 2.18 2.13 2.24 2.23 1.92 1.82 1.66 1.40 1.20 1.27 1.33 1.41 1.27 1.03 0.96 1.24 1.27 1.25 1.18 0.94 0.83 0.97 1.23 1.57 1.82 1.69 1.84 2.03 1.83 1.50 1.44
1.92 1.88 1.92 2.17 2.19 2.06 1.97 1.88 2.12 2.17 2.08 2.44 2.52 2.15 1.85 1.87 1.60 1.42 1.37 1.34 1.40 1.31 1.20 1.24 1.27 1.30 1.38 1.24 1.06 1.13 1.27 1.50 1.74 1.82 1.92 1.98 1.95 1.54
2.09 1.83 1.78 2.15 1.98 2.38 2.32 2.39 2.31 2.22 2.20 1.91 1.81 1.85 1.83 1.57 1.88 2.08 2.09 1.82 1.60 1.17 1.43 1.47 1.44 1.46 1.39 1.35 1.46 1.26 1.09 1.20 1.39 1.59 1.75 1.91 2.03 2.15
2.21 2.14 2.24 2.57 2.53 2.05 2.45 2.44 2.65 2.60 2.25 2.09 2.03 1.54 1.67 1.51 1.56 2.02 1.73 1.47 1.37 1.02 1.40 1.80 1.71 1.82 1.59 1.78 2.00 1.61 1.46 1.52 1.60 1.63 1.73 1.96 2.07 2.28
2.03 2.15 2.33 2.46 2.45 2.25 2.31 2.54 2.26 2.07 1.97 1.87 1.77 1.55 1.35 1.38 1.80 1.94 2.27 2.57 2.09 1.60 1.86 2.27 1.55 1.58 1.51 1.49 1.89 1.92 1.84 1.79 1.97 2.05 2.07 2.06 2.21 2.29
1.19 1.57 1.88 2.16 2.85 2.50 2.36 2.56 2.36 2.07 2.16 2.26 2.21 1.89 2.06 2.15 2.02 2.51 2.58 2.55 2.45 1.58 1.28 1.58 1.33 1.44 1.63 1.67 1.67 1.74 1.90 2.04 2.02 2.23 2.40 2.39 2.46 2.83
0.76 1.05 1.54 1.53 1.88 1.78 1.77 1.79 2.00 1.89 1.72 1.76 1.98 2.26 2.14 2.31 2.25 2.16 2.46 2.68 2.30 2.39 1.38 1.48 1.15 1.17 1.89 1.56 1.46 1.64 1.67 1.82 1.96 1.96 1.97 2.19 2.48 2.79
0.57 0.56 0.68 1.05 1.14 1.25 1.35 1.44 1.61 1.40 1.47 1.63 1.75 1.84 1.86 1.83 2.08 2.11 2.17 2.78 2.72 2.06 1.36 1.88 1.63 1.27 1.62 1.23 1.18 1.32 1.45 1.74 1.93 2.00 2.01 1.98 2.11 2.42
0.96 0.95 0.96 0.83 0.72 0.81 1.03 1.32 1.31 1.17 1.27 1.50 1.65 1.68 1.81 1.84 1.68 1.83 1.84 1.98 2.06 2.40 1.83 2.43 2.52 1.43 1.75 1.59 1.14 1.31 1.57 1.76 1.93 1.81 1.90 2.19 2.21 2.24
0.93 1.01 0.99 0.90 0.75 0.74 0.75 0.86 1.02 1.23 1.31 1.37 1.34 1.26 1.31 1.44 1.52 1.72 1.94 2.02 2.13 2.23 2.40 2.45 2.38 1.80 1.92 1.89 1.44 1.31 1.65 1.85 1.79 1.67 1.70 1.68 1.65 1.66
0.94 0.81 0.79 0.76 0.80 0.93 0.95 0.85 0.91 1.00 1.09 1.20 1.15 1.06 1.00 1.15 1.34 1.49 1.72 1.78 2.29 2.35 2.04 2.20 2.41 2.58 2.43 1.79 1.50 1.55 1.44 1.53 1.62 1.62 1.63 1.74 1.65 1.44
0.99 1.04 0.92 0.74 0.63 0.57 0.53 0.44 0.45 0.52 0.63 0.65 0.74 0.82 0.96 1.02 1.07 1.17 1.38 1.49 1.79 1.65 1.81 1.85 2.06 2.30 2.21 1.96 1.99 1.56 1.49 1.62 1.63 1.60 1.71 1.76 1.60 1.65
0.90 0.72 0.63 0.61 0.59 0.54 0.59 0.63 0.47 0.47 0.40 0.43 0.55 0.53 0.66 0.83 0.93 1.03 1.18 1.34 1.39 1.54 1.73 1.79 1.84 2.33 2.32 1.78 1.55 1.57 1.96 1.98 1.76 1.57 1.51 1.71 1.66 1.61
0.94 0.80 0.77 0.74 0.74 0.68 0.62 0.59 0.61 0.65 0.59 0.61 0.63 0.61 0.55 0.58 0.82 0.81 0.92 1.14 1.21 1.11 1.30 1.64 1.85 1.97 2.25 2.13 1.45 1.28 1.58 1.48 1.56 1.68 1.66 1.62 1.70 1.52
0.94 0.94 0.93 0.83 0.77 0.72 0.65 0.64 0.61 0.58 0.54 0.53 0.68 0.68 0.68 0.67 0.68 0.69 0.74 0.88 0.98 0.95 0.90 1.01 1.34 1.61 1.91 1.93 1.83 1.46 1.40 1.43 1.59 1.61 1.60 1.54 1.57 1.69
1.02 1.08 1.12 1.05 0.93 0.82 0.79 0.74 0.71 0.71 0.66 0.62 0.61 0.60 0.60 0.66 0.67 0.65 0.71 0.76 0.81 0.86 0.94 0.91 1.02 1.29 1.42 1.58 1.92 1.79 1.75 1.55 1.41 1.65 1.67 1.97 1.66 1.51
1.57 1.46 1.34 1.33 1.28 1.20 1.13 1.03 0.93 0.86 0.78 0.71 0.69 0.68 0.69 0.69 0.67 0.69 0.74 0.90 0.89 0.88 0.92 0.86 0.85 1.00 1.26 1.46 1.62 1.54 1.63 1.74 1.52 1.42 1.53 1.83 1.92 1.74
1.48 1.42 1.32 1.23 1.18 1.16 1.11 1.08 1.02 1.01 0.94 0.87 0.82 0.79 0.78 0.79 0.74 0.74 0.71 0.68 0.68 0.70 0.70 0.86 0.89 1.00 1.17 1.23 1.45 1.67 1.49 1.52 1.57 1.44 1.63 1.35 1.25 1.09

GFSNE_prec_precacc_207.txt.gz
Total_Precipitation_Accumulation
2.09 1.91 1.54 1.27 1.25 1.18 1.14 1.20 1.64 1.72 1.40 0.86 0.61 0.45 0.46 0.61 0.78 1.00 1.04 1.03 1.09 1.06 1.22 1.52 1.32 1.32 1.66 1.74 1.67 1.66 1.68 1.65 1.42 1.33 1.22 1.24 1.48 1.77
1.97 1.90 1.59 1.27 1.19 1.09 1.16 1.11 1.06 1.24 1.27 0.81 0.75 0.55 0.51 0.45 0.47 0.57 0.85 1.19 1.05 0.94 0.92 1.16 1.57 1.54 1.29 1.56 1.85 1.92 1.96 1.77 1.56 1.44 1.47 1.29 1.29 1.53
1.86 1.87 1.71 1.75 1.85 1.51 1.38 1.46 1.34 1.42 1.41 0.91 0.85 0.94 0.89 0.67 0.54 0.61 0.71 0.88 1.00 0.92 0.72 0.79 1.12 1.59 1.73 1.55 1.48 1.78 2.20 2.17 1.75 1.42 1.23 1.27 1.28 1.30
1.66 1.93 1.79 1.91 2.14 1.97 1.86 1.60 1.48 1.34 1.68 1.36 1.25 1.37 1.60 1.46 1.04 0.77 0.59 0.59 0.74 1.03 0.90 0.65 0.62 0.86 1.42 1.72 1.74 1.60 1.68 2.11 2.10 1.68 1.38 1.22 1.26 1.37
1.43 1.40 1.42 1.68 1.70 1.74 1.82 1.62 1.56 1.77 2.07 1.86 1.57 1.39 1.32 1.33 1.25 1.16 0.93 0.63 0.57 0.98 1.00 1.13 1.00 0.76 0.79 1.10 1.48 1.64 1.55 1.46 1.81 2.00 1.68 1.44 1.26 1.19
1.69 1.59 1.41 1.59 1.55 1.70 2.02 2.18 2.13 2.24 2.23 1.92 1.83 1.66 1.41 1.20 1.27 1.33 1.41 1.27 1.03 0.96 1.24 1.27 1.25 1.18 0.94 0.83 0.97 1.23 1.57 1.82 1.69 1.84 2.03 1.83 1.50 1.44
1.96 1.91 1.94 2.18 2.20 2.06 1.97 1.88 2.12 2.17 2.08 2.44 2.53 2.16 1.85 1.87 1.60 1.42 1.37 1.34 1.40 1.31 1.20 1.24 1.27 1.30 1.38 1.24 1.06 1.13 1.27 1.50 1.74 1.82 1.92 1.98 1.95 1.54
2.10 1.85 1.79 2.16 1.98 2.38 2.32 2.39 2.31 2.22 2.20 1.91 1.81 1.85 1.83 1.57 1.88 2.08 2.09 1.82 1.60 1.17 1.43 1.47 1.44 1.46 1.39 1.35 1.46 1.26 1.09 1.20 1.39 1.59 1.75 1.91 2.03 2.15
2.22 2.16 2.25 2.58 2.53 2.06 2.46 2.45 2.65 2.60 2.25 2.09 2.03 1.54 1.67 1.51 1.56 2.02 1.73 1.47 1.37 1.02 1.40 1.80 1.71 1.82 1.59 1.78 2.00 1.61 1.46 1.52 1.60 1.63 1.73 1.96 2.07 2.28
2.04 2.15 2.33 2.47 2.46 2.26 2.33 2.55 2.26 2.07 1.97 1.87 1.77 1.55 1.35 1.38 1.80 1.94 2.27 2.57 2.09 1.60 1.86 2.27 1.55 1.58 1.51 1.49 1.89 1.92 1.84 1.79 1.97 2.05 2.07 2.06 2.21 2.29
1.20 1.57 1.88 2.17 2.87 2.51 2.37 2.57 2.36 2.07 2.16 2.26 2.21 1.89 2.06 2.15 2.02 2.51 2.58 2.55 2.45 1.58 1.28 1.58 1.33 1.44 1.63 1.67 1.67 1.74 1.90 2.04 2.02 2.23 2.40 2.39 2.46 2.83
0.76 1.06 1.54 1.55 1.90 1.79 1.78 1.79 2.00 1.89 1.72 1.76 1.98 2.26 2.14 2.31 2.25 2.16 2.46 2.68 2.30 2.39 1.38 1.48 1.15 1.17 1.89 1.56 1.46 1.64 1.67 1.82 1.96 1.96 1.97 2.19 2.48 2.79
0.58 0.57 0.71 1.09 1.17 1.25 1.35 1.44 1.61 1.40 1.47 1.63 1.75 1.84 1.86 1.83 2.08 2.11 2.17 2.78 2.72 2.06 1.36 1.88 1.63 1.27 1.62 1.23 1.18 1.32 1.45 1.74 1.93 2.00 2.01 1.98 2.11 2.42
0.98 0.97 0.99 0.86 0.74 0.82 1.03 1.32 1.31 1.17 1.27 1.50 1.65 1.68 1.81 1.84 1.68 1.83 1.84 1.98 2.06 2.40 1.83 2.43 2.52 1.43 1.75 1.59 1.14 1.31 1.57 1.76 1.93 1.81 1.90 2.19 2.21 2.24
0.95 1.03 1.01 0.92 0.75 0.74 0.75 0.86 1.02 1.23 1.31 1.37 1.34 1.26 1.31 1.44 1.52 1.72 1.94 2.02 2.13 2.23 2.40 2.45 2.38 1.80 1.92 1.89 1.44 1.31 1.65 1.85 1.79 1.67 1.70 1.68 1.65 1.66
0.97 0.84 0.80 0.77 0.80 0.93 0.95 0.85 0.91 1.00 1.09 1.20 1.15 1.06 1.00 1.15 1.34 1.49 1.72 1.78 2.29 2.35 2.04 2.20 2.41 2.58 2.43 1.79 1.50 1.55 1.44 1.53 1.62 1.62 1.64 1.74 1.65 1.44
1.01 1.06 0.94 0.74 0.63 0.57 0.53 0.44 0.45 0.52 0.63 0.65 0.74 0.82 0.96 1.02 1.07 1.17 1.38 1.49 1.79 1.65 1.81 1.85 2.06 2.30 2.21 1.96 1.99 1.56 1.49 1.62 1.63 1.60 1.71 1.76 1.60 1.65
0.91 0.72 0.63 0.61 0.59 0.54 0.59 0.63 0.47 0.47 0.40 0.43 0.55 0.53 0.66 0.83 0.93 1.03 1.18 1.34 1.39 1.54 1.73 1.79 1.84 2.33 2.32 1.78 1.55 1.57 1.96 1.98 1.76 1.57 1.51 1.71 1.66 1.61
0.94 0.80 0.77 0.74 0.74 0.68 0.62 0.59 0.61 0.65 0.59 0.61 0.63 0.61 0.55 0.58 0.82 0.81 0.92 1.14 1.21 1.11 1.30 1.64 1.85 1.97 2.26 2.13 1.45 1.28 1.58 1.48 1.56 1.68 1.66 1.62 1.70 1.52
0.94 0.94 0.93 0.83 0.77 0.72 0.65 0.64 0.61 0.58 0.54 0.53 0.68 0.68 0.68 0.67 0.68 0.69 0.74 0.88 0.98 0.95 0.90 1.01 1.34 1.61 1.91 1.93 1.84 1.46 1.40 1.43 1.59 1.61 1.60 1.54 1.57 1.69
1.02 1.08 1.12 1.05 0.93 0.82 0.79 0.74 0.71 0.71 0.66 0.62 0.61 0.60 0.60 0.66 0.67 0.65 0.71 0.76 0.81 0.86 0.94 0.91 1.02 1.29 1.42 1.58 1.92 1.79 1.75 1.55 1.41 1.65 1.67 1.98 1.66 1.51
1.57 1.46 1.34 1.33 1.28 1.20 1.13 1.03 0.93 0.86 0.78 0.71 0.69 0.68 0.69 0.69 0.67 0.69 0.74 0.90 0.89 0.88 0.92 0.86 0.85 1.00 1.26 1.46 1.62 1.54 1.63 1.74 1.52 1.42 1.53 1.83 1.93 1.75
1.48 1.42 1.32 1.23 1.18 1.16 1.11 1.08 1.02 1.01 0.94 0.87 0.82 0.79 0.78 0.79 0.74 0.74 0.71 0.68 0.68 0.70 0.70 0.86 0.89 1.00 1.17 1.23 1.45 1.67 1.49 1.52 1.57 1.44 1.63 1.35 1.25 1.09

GFSNE_prec_precacc_210.txt.gz
Total_Precipitation_Accumulation
2.09 1.91 1.54 1.27 1.25 1.18 1.14 1.20 1.64 1.72 1.40 0.86 0.61 0.45 0.46 0.61 0.78 1.00 1.04 1.03 1.09 1.06 1.22 1.52 1.32 1.32 1.66 1.74 1.67 1.66 1.68 1.65 1.42 1.33 1.22 1.24 1.48 1.77
2.00 1.91 1.60 1.27 1.19 1.09 1.16 1.12 1.07 1.24 1.27 0.81 0.75 0.55 0.51 0.45 0.47 0.57 0.85 1.19 1.05 0.94 0.92 1.16 1.57 1.54 1.29 1.56 1.85 1.92 1.96 1.77 1.56 1.44 1.47 1.29 1.29 1.53
1.92 1.92 1.76 1.80 1.88 1.53 1.40 1.47 1.35 1.42 1.41 0.91 0.85 0.94 0.89 0.67 0.54 0.61 0.71 0.88 1.00 0.92 0.72 0.79 1.12 1.59 1.73 1.55 1.48 1.78 2.20 2.17 1.75 1.42 1.23 1.27 1.28 1.30
1.74 2.01 1.86 1.97 2.19 2.00 1.88 1.61 1.49 1.34 1.68 1.36 1.25 1.37 1.60 1.46 1.04 0.77 0.59 0.60 0.75 1.03 0.90 0.65 0.62 0.86 1.42 1.72 1.74 1.60 1.68 2.11 2.10 1.68 1.38 1.22 1.26 1.37
1.58 1.55 1.56 1.79 1.78 1.80 1.87 1.66 1.59 1.80 2.07 1.86 1.57 1.39 1.32 1.33 1.25 1.16 0.93 0.63 0.57 0.98 1.00 1.13 1.00 0.76 0.79 1.10 1.48 1.64 1.55 1.46 1.81 2.00 1.68 1.44 1.26 1.19
1.87 1.76 1.55 1.71 1.63 1.77 2.07 2.22 2.17 2.27 2.24 1.92 1.83 1.66 1.41 1.20 1.27 1.33 1.41 1.27 1.03 0.96 1.24 1.27 1.25 1.18 0.94 0.83 0.97 1.23 1.57 1.82 1.69 1.84 2.03 1.83 1.50 1.44
2.11 2.03 2.04 2.29 2.29 2.15 2.02 1.92 2.14 2.18 2.08 2.44 2.53 2.16 1.85 1.87 1.60 1.42 1.37 1.34 1.40 1.31 1.20 1.24 1.27 1.30 1.38 1.24 1.06 1.13 1.27 1.50 1.74 1.82 1.92 1.98 1.95 1.54
2.18 1.90 1.85 2.21 2.02 2.42 2.35 2.41 2.32 2.22 2.20 1.91 1.81 1.86 1.83 1.57 1.88 2.08 2.09 1.82 1.60 1.17 1.43 1.47 1.44 1.46 1.39 1.35 1.46 1.26 1.09 1.20 1.39 1.59 1.75 1.91 2.03 2.15
2.29 2.21 2.28 2.60 2.54 2.06 2.46 2.45 2.65 2.60 2.25 2.09 2.03 1.54 1.67 1.51 1.56 2.02 1.73 1.47 1.37 1.02 1.40 1.80 1.71 1.82 1.59 1.78 2.00 1.61 1.46 1.52 1.60 1.63 1.73 1.96 2.07 2.28
2.05 2.16 2.34 2.47 2.46 2.26 2.33 2.55 2.26 2.07 1.97 1.87 1.77 1.55 1.35 1.38 1.80 1.94 2.27 2.57 2.09 1.60 1.86 2.27 1.55 1.58 1.51 1.49 1.89 1.92 1.84 1.79 1.97 2.05 2.07 2.06 2.21 2.29
1.22 1.58 1.88 2.17 2.87 2.51 2.37 2.57 2.37 2.07 2.16 2.26 2.21 1.89 2.06 2.15 2.02 2.51 2.58 2.55 2.45 1.58 1.28 1.58 1.33 1.44 1.63 1.67 1.67 1.74 1.90 2.04 2.02 2.23 2.40 2.39 2.46 2.83
0.78 1.07 1.55 1.55 1.91 1.79 1.78 1.80 2.00 1.89 1.72 1.77 1.98 2.26 2.14 2.31 2.25 2.16 2.46 2.68 2.30 2.39 1.38 1.48 1.15 1.17 1.89 1.56 1.46 1.64 1.67 1.82 1.96 1.96 1.97 2.19 2.48 2.79
0.59 0.57 0.71 1.09 1.17 1.25 1.35 1.44 1.61 1.40 1.47 1.63 1.75 1.84 1.86 1.83 2.08 2.11 2.17 2.78 2.72 2.06 1.36 1.88 1.63 1.27 1.62 1.23 1.18 1.32 1.45 1.74 1.93 2.00 2.01 1.98 2.11 2.42
0.98 0.97 0.99 0.87 0.74 0.82 1.03 1.32 1.31 1.17 1.27 1.50 1.65 1.68 1.81 1.84 1.68 1.83 1.84 1.98 2.06 2.40 1.83 2.43 2.52 1.43 1.75 1.59 1.14 1.31 1.57 1.76 1.93 1.81 1.90 2.19 2.21 2.24
0.95 1.03 1.02 0.92 0.76 0.74 0.75 0.86 1.02 1.23 1.31 1.37 1.34 1.26 1.31 1.44 1.52 1.72 1.94 2.02 2.13 2.23 2.40 2.45 2.38 1.80 1.92 1.89 1.44 1.31 1.65 1.85 1.79 1.67 1.70 1.68 1.65 1.67
1.00 0.86 0.81 0.78 0.80 0.93 0.95 0.85 0.91 1.00 1.09 1.20 1.15 1.06 1.00 1.15 1.34 1.49 1.72 1.78 2.29 2.35 2.04 2.20 2.41 2.58 2.43 1.79 1.50 1.55 1.44 1.53 1.62 1.62 1.64 1.74 1.65 1.44
1.02 1.07 0.95 0.75 0.63 0.57 0.53 0.44 0.45 0.52 0.63 0.65 0.74 0.82 0.96 1.02 1.07 1.17 1.38 1.49 1.79 1.65 1.81 1.85 2.06 2.30 2.21 1.96 1.99 1.56 1.49 1.62 1.63 1.60 1.71 1.76 1.60 1.65
0.91 0.73 0.64 0.61 0.59 0.54 0.59 0.63 0.47 0.47 0.40 0.43 0.55 0.53 0.66 0.83 0.93 1.03 1.18 1.34 1.39 1.54 1.73 1.79 1.84 2.33 2.32 1.78 1.55 1.57 1.96 1.98 1.76 1.57 1.51 1.71 1.66 1.61
0.94 0.80 0.77 0.74 0.74 0.68 0.62 0.59 0.61 0.65 0.59 0.61 0.63 0.61 0.55 0.58 0.82 0.81 0.92 1.14 1.21 1.11 1.30 1.64 1.85 1.97 2.26 2.14 1.45 1.28 1.58 1.48 1.56 1.68 1.66 1.62 1.70 1.52
0.94 0.94 0.93 0.83 0.77 0.72 0.65 0.64 0.61 0.58 0.54 0.53 0.68 0.68 0.68 0.67 0.68 0.69 0.74 0.88 0.98 0.95 0.90 1.01 1.34 1.61 1.91 1.93 1.84 1.47 1.40 1.43 1.59 1.61 1.60 1.55 1.58 1.69
1.02 1.08 1.12 1.05 0.93 0.82 0.79 0.74 0.71 0.71 0.66 0.62 0.61 0.60 0.60 0.66 0.67 0.65 0.71 0.76 0.82 0.86 0.94 0.91 1.02 1.29 1.42 1.59 1.92 1.79 1.75 1.55 1.41 1.65 1.67 1.99 1.67 1.51
1.57 1.46 1.34 1.33 1.28 1.20 1.13 1.03 0.93 0.86 0.78 0.71 0.69 0.68 0.69 0.69 0.68 0.69 0.74 0.90 0.90 0.88 0.92 0.86 0.85 1.00 1.26 1.46 1.62 1.54 1.63 1.74 1.52 1.42 1.53 1.83 1.94 1.76
1.48 1.42 1.32 1.23 1.18 1.16 1.11 1.08 1.02 1.01 0.94 0.87 0.82 0.79 0.78 0.80 0.74 0.74 0.71 0.68 0.68 0.70 0.70 0.86 0.89 1.00 1.17 1.23 1.45 1.67 1.49 1.52 1.57 1.44 1.63 1.35 1.25 1.09

GFSNE_prec_precacc_216.txt.gz
Total_Precipitation_Accumulation
2.90 2.56 2.06 1.66 1.48 1.30 1.19 1.22 1.64 1.73 1.41 0.87 0.62 0.45 0.46 0.61 0.78 1.00 1.04 1.03 1.09 1.06 1.22 1.52 1.32 1.32 1.66 1.74 1.67 1.66 1.68 1.65 1.42 1.33 1.22 1.24 1.48 1.77
2.73 2.52 2.05 1.56 1.39 1.19 1.19 1.12 1.07 1.24 1.28 0.81 0.75 0.55 0.51 0.45 0.47 0.57 0.85 1.19 1.05 0.94 0.92 1.16 1.57 1.54 1.29 1.56 1.85 1.92 1.96 1.77 1.56 1.44 1.47 1.29 1.29 1.53
2.44 2.42 2.24 2.18 2.18 1.74 1.50 1.50 1.37 1.43 1.42 0.92 0.86 0.95 0.89 0.67 0.54 0.61 0.71 0.88 1.00 0.92 0.72 0.79 1.12 1.59 1.73 1.55 1.48 1.78 2.20 2.17 1.75 1.42 1.23 1.27 1.28 1.30
2.14 2.47 2.35 2.46 2.62 2.36 2.14 1.77 1.58 1.41 1.73 1.41 1.28 1.39 1.61 1.46 1.04 0.77 0.59 0.60 0.75 1.03 0.90 0.65 0.62 0.86 1.42 1.72 1.74 1.60 1.68 2.11 2.10 1.68 1.38 1.22 1.26 1.37
1.88 1.88 1.96 2.20 2.22 2.23 2.24 1.96 1.85 2.03 2.26 2.03 1.71 1.47 1.37 1.36 1.26 1.16 0.93 0.63 0.57 0.98 1.00 1.13 1.00 0.76 0.79 1.10 1.48 1.64 1.55 1.46 1.81 2.00 1.68 1.44 1.26 1.19
2.20 2.08 1.88 2.05 1.97 2.10 2.39 2.51 2.44 2.54 2.49 2.15 2.01 1.81 1.53 1.29 1.32 1.35 1.42 1.27 1.03 0.96 1.24 1.27 1.25 1.18 0.94 0.83 0.97 1.23 1.57 1.82 1.69 1.84 2.03 1.83 1.50 1.44
2.51 2.43 2.41 2.65 2.66 2.50 2.35 2.20 2.40 2.45 2.33 2.65 2.71 2.32 1.99 1.99 1.68 1.46 1.40 1.36 1.40 1.31 1.20 1.24 1.27 1.30 1.38 1.24 1.06 1.13 1.27 1.50 1.74 1.82 1.92 1.98 1.95 1.54
2.49 2.23 2.19 2.54 2.34 2.74 2.68 2.75 2.64 2.50 2.42 2.09 1.96 1.98 1.93 1.65 1.95 2.14 2.13 1.85 1.61 1.17 1.43 1.47 1.44 1.46 1.39 1.35 1.46 1.26 1.09 1.20 1.39 1.59 1.75 1.91 2.03 2.15
2.53 2.48 2.58 2.90 2.83 2.32 2.73 2.71 2.90 2.82 2.44 2.24 2.15 1.65 1.75 1.58 1.61 2.05 1.75 1.48 1.38 1.02 1.40 1.80 1.71 1.82 1.59 1.78 2.00 1.61 1.46 1.52 1.60 1.63 1.73 1.96 2.07 2.28
2.22 2.34 2.53 2.67 2.64 2.43 2.48 2.70 2.42 2.21 2.09 1.97 1.86 1.62 1.39 1.41 1.81 1.95 2.28 2.57 2.09 1.60 1.86 2.27 1.55 1.58 1.51 1.49 1.89 1.92 1.84 1.79 1.97 2.05 2.07 2.06 2.21 2.29
1.36 1.68 1.98 2.27 2.95 2.57 2.43 2.64 2.43 2.14 2.21 2.29 2.23 1.90 2.06 2.15 2.02 2.51 2.58 2.55 2.45 1.58 1.28 1.58 1.33 1.44 1.63 1.67 1.67 1.74 1.90 2.04 2.02 2.23 2.40 2.39 2.46 2.83
0.89 1.16 1.63 1.61 1.95 1.81 1.80 1.81 2.02 1.91 1.72 1.77 1.98 2.26 2.14 2.31 2.25 2.16 2.46 2.68 2.30 2.39 1.38 1.48 1.15 1.17 1.89 1.56 1.46 1.64 1.67 1.82 1.96 1.96 1.97 2.19 2.48 2.79
0.74 0.65 0.77 1.12 1.18 1.25 1.35 1.44 1.61 1.40 1.47 1.63 1.75 1.84 1.86 1.83 2.08 2.11 2.17 2.78 2.72 2.06 1.36 1.88 1.63 1.27 1.62 1.23 1.18 1.32 1.45 1.74 1.93 2.00 2.01 1.98 2.11 2.42
1.14 1.06 1.08 0.92 0.75 0.82 1.03 1.32 1.31 1.17 1.27 1.50 1.66 1.68 1.82 1.84 1.68 1.83 1.84 1.98 2.06 2.40 1.83 2.43 2.52 1.43 1.75 1.59 1.14 1.31 1.57 1.76 1.93 1.81 1.90 2.19 2.21 2.24
1.07 1.11 1.07 0.95 0.76 0.74 0.75 0.86 1.02 1.23 1.31 1.38 1.34 1.26 1.31 1.44 1.52 1.72 1.94 2.02 2.13 2.23 2.40 2.45 2.38 1.80 1.92 1.89 1.44 1.31 1.65 1.85 1.79 1.67 1.70 1.68 1.65 1.67
1.17 1.00 0.87 0.79 0.80 0.93 0.96 0.85 0.91 1.00 1.09 1.20 1.15 1.06 1.00 1.15 1.34 1.49 1.72 1.78 2.29 2.35 2.04 2.20 2.41 2.58 2.43 1.79 1.50 1.55 1.44 1.53 1.62 1.62 1.64 1.74 1.65 1.44
1.14 1.18 1.03 0.78 0.64 0.58 0.54 0.44 0.45 0.52 0.63 0.65 0.74 0.82 0.96 1.02 1.07 1.17 1.38 1.49 1.79 1.66 1.81 1.85 2.07 2.30 2.21 1.96 1.99 1.56 1.49 1.62 1.63 1.60 1.71 1.76 1.60 1.65
0.95 0.77 0.70 0.65 0.61 0.54 0.59 0.63 0.47 0.47 0.40 0.43 0.55 0.53 0.66 0.83 0.93 1.03 1.18 1.34 1.39 1.54 1.74 1.79 1.85 2.33 2.33 1.78 1.55 1.57 1.96 1.98 1.76 1.57 1.51 1.71 1.66 1.61
0.99 0.86 0.82 0.78 0.76 0.68 0.62 0.59 0.61 0.65 0.59 0.61 0.63 0.61 0.55 0.58 0.82 0.81 0.92 1.14 1.21 1.11 1.31 1.65 1.85 1.97 2.26 2.14 1.45 1.28 1.58 1.48 1.56 1.68 1.66 1.62 1.70 1.52
1.02 0.99 0.97 0.85 0.78 0.72 0.65 0.64 0.61 0.58 0.54 0.53 0.68 0.68 0.68 0.68 0.68 0.69 0.74 0.88 0.99 0.95 0.90 1.01 1.34 1.61 1.91 1.93 1.84 1.47 1.40 1.43 1.59 1.61 1.60 1.55 1.58 1.69
1.09 1.14 1.16 1.07 0.94 0.82 0.79 0.74 0.71 0.71 0.66 0.62 0.62 0.60 0.60 0.67 0.67 0.65 0.72 0.76 0.82 0.87 0.94 0.91 1.02 1.29 1.42 1.59 1.92 1.79 1.75 1.55 1.41 1.65 1.68 1.99 1.67 1.51
1.63 1.50 1.36 1.34 1.29 1.20 1.13 1.03 0.93 0.86 0.79 0.71 0.70 0.68 0.70 0.70 0.68 0.70 0.75 0.91 0.90 0.88 0.92 0.86 0.85 1.00 1.26 1.46 1.62 1.54 1.63 1.74 1.52 1.42 1.53 1.84 1.95 1.77
1.50 1.44 1.33 1.23 1.18 1.16 1.11 1.08 1.02 1.01 0.94 0.87 0.82 0.79 0.79 0.80 0.75 0.75 0.72 0.68 0.68 0.70 0.70 0.86 0.89 1.00 1.17 1.23 1.45 1.67 1.49 1.52 1.57 1.44 1.63 1.35 1.25 1.10